Regional Weather Roundup
Issued by NWS

Home | Current Version | Previous Version | Graphics & Text | Print | Product List | Glossary On
Versions: 1 2 3 4 5 6 7 8 9 10 11 12 13 14 15 16 17 18 19 20 21 22 23 24 25 26 27 28 29 30 31 32 33 34 35 36 37 38 39 40 41 42 43 44 45 46 47 48 49 50
803
ASUS43 KLMK 211402
RWRKY
KENTUCKY REGIONAL WEATHER ROUNDUP
NATIONAL WEATHER SERVICE LOUISVILLE KY
900 AM EST SAT JAN 21 2017

NOTE "FAIR" INDICATES FEW OR NO CLOUDS BELOW 12,000 FEET
WITH NO SIGNIFICANT WEATHER AND/OR OBSTRUCTIONS TO VISIBILITY.

KYZ001>023-026-027-061>063-070>075-211500-
WESTERN AND SOUTH CENTRAL KENTUCKY

CITY           SKY/WX    TMP DP  RH WIND       PRES   REMARKS
PADUCAH        MOCLDY    60  51  72 S8        29.63S
HENDERSON      CLOUDY    55  50  82 S9        29.65R
OWENSBORO      CLOUDY    56  52  86 S10       29.68R
HOPKINSVILLE   CLOUDY    58  53  84 S8        29.70S
BOWLING GREEN  CLOUDY    60  54  80 S8        29.74S
GLASGOW        NOT AVBL
$$

KYZ024-025-028>034-038-045-046-053-211500-
NORTH CENTRAL KENTUCKY

CITY           SKY/WX    TMP DP  RH WIND       PRES   REMARKS
LOUISVILLE/SDF CLOUDY    54  50  86 SE10      29.70
LOUISVILLE/LOU CLOUDY    52  49  89 SE5       29.71F
FORT KNOX      CLOUDY    56  53  91 S12       29.70R
$$

KYZ035>037-039>044-047>052-055>060-089>105-211500-
NORTHEAST KENTUCKY

CITY           SKY/WX    TMP DP  RH WIND       PRES   REMARKS
LEXINGTON      MOSUNNY   54  49  83 S9        29.76
COVINGTON      PTSUNNY   52  49  89 S9        29.71R
FRANKFORT      PTSUNNY   55  49  80 S6        29.74R
$$

KYZ054-064>069-076>088-106>120-211500-
SOUTHEAST KENTUCKY

CITY           SKY/WX    TMP DP  RH WIND       PRES   REMARKS
JACKSON        SUNNY     56  50  80 VRB5      29.80R
LONDON         PTSUNNY   50  47  89 SE3       29.80R
SOMERSET       MOSUNNY   54  50  87 S5        29.81R
MIDDLESBORO    CLOUDY    47  47 100 CALM      29.85S
MONTICELLO     MOSUNNY   57  52  83 VRB7      29.81R
$$





USA.gov is the U.S. government's official web portal to all federal, state and local government web resources and services.